Regional Weather Roundup
Issued by NWS

Home | Current Version | Previous Version | Text Only | Print | Product List | Glossary On
Versions: 1 2 3 4 5 6 7 8 9 10 11 12 13 14 15 16 17 18 19 20 21 22 23 24 25 26 27 28 29 30 31 32 33 34 35 36 37 38 39 40 41 42 43 44 45 46 47 48 49 50
000
ASUS45 KPSR 280210
RWRAZ

ARIZONA REGIONAL HOURLY WEATHER ROUNDUP
NATIONAL WEATHER SERVICE TUCSON AZ
700 PM MST TUE JUN 27 2017

NOTE: FAIR INDICATES FEW OR NO CLOUDS BELOW 12,000 FEET WITH NO
SIGNIFICANT WEATHER AND/OR OBSTRUCTIONS TO VISIBILITY.

AZZ001>003-036-280300-
NORTHWEST ARIZONA

CITY           SKY/WX    TMP DP  RH WIND       PRES   REMARKS
BULLHEAD CITY  CLEAR    111   3   2 SW12      29.58F HX 101
KINGMAN        CLEAR     97  14   5 W21G26    29.84F
$$

AZZ004>008-015-016-018-280300-
NORTH CENTRAL ARIZONA

CITY           SKY/WX    TMP DP  RH WIND       PRES   REMARKS
GRAND CANYON   CLEAR     82   7   6 SW13      30.09S
PRESCOTT       CLEAR     87  -1   3 SW16      30.01S
FLAGSTAFF      CLEAR     77   1   5 SW21      30.15R
PAYSON         CLEAR     86  18   8 MISG      30.05S
PAGE           CLEAR     96  11   4 W13G20    29.82R
$$

AZZ009>014-017-280300-
NORTHEAST ARIZONA

CITY           SKY/WX    TMP DP  RH WIND       PRES   REMARKS
WINSLOW        CLEAR     89  13   6 SW18      29.97R
SAINT JOHNS    CLEAR     86  11   6 W16       30.02S
WINDOW ROCK    CLEAR     83  12   7 SW15      30.07S
SHOW LOW         N/A     77  14   9 MISG        N/A
$$

AZZ023-280300-
GREATER PHOENIX AREA

CITY           SKY/WX    TMP DP  RH WIND       PRES   REMARKS
PHOENIX        PTCLDY   106  24   5 SW8       29.66F
BUCKEYE        CLEAR    102  27   7 W13       29.66S
GLENDALE       PTCLDY   108  23   5 S14       29.67F
LUKE AFB       CLEAR    107  28   6 SW14      29.65S
DEER VALLEY    CLEAR    104  15   4 SW14      29.68F
SCOTTSDALE     CLEAR    105  19   4 SW8       29.71F
MESA-FALCON    PTCLDY   104  28   7 SW9       29.71S
MESA-GATEWAY   PTCLDY   106  21   5 W9        29.71F
CHANDLER       CLEAR    106  23   5 SW10      29.69S
$$

AZZ027-028-280300-
SOUTHWEST MARICOPA COUNTY AND PINAL COUNTY

CITY           SKY/WX    TMP DP  RH WIND       PRES   REMARKS
CASA GRANDE    CLEAR    104  28   7 W13       29.72S
$$

AZZ503-504-507>509-280300-
SOUTHEAST ARIZONA

CITY           SKY/WX    TMP DP  RH WIND       PRES   REMARKS
TUCSON         CLEAR    102  29   7 W15G22    29.83S
DAVIS-MONTHAN  CLEAR    100  25   7 NW17G25   29.82S
RYAN FIELD     CLEAR    102  28   7 NW16      29.81S
NOGALES        CLEAR     94  32  11 W14G22    29.95R
SIERRA VISTA   CLEAR     91  28  10 W14G22    30.01S
DOUGLAS        PTCLDY    95  29   9 N20G26    29.94R
SAFFORD        CLEAR     99  24   7 W18       29.82R
$$

AZZ020-021-025-026-031-280300-
SOUTHWEST ARIZONA

CITY           SKY/WX    TMP DP  RH WIND       PRES   REMARKS
YUMA           CLEAR    104  51  17 S16       29.64R HX 101
$$

CAZ031-033-041-043-047-048-061-280300-
SOUTHERN CALIFORNIA

CITY           SKY/WX    TMP DP  RH WIND       PRES   REMARKS
DOWNTOWN L.A.  SUNNY     78  54  43 W5        29.82S
L.A. AIRPORT   SUNNY     68  58  70 W14       29.84S
SAN DIEGO      MOSUNNY   72  62  71 VRB7      29.87S
BURBANK        SUNNY     84  40  21 S10       29.82F
ONTARIO        SUNNY     88  34  14 W13       29.83S
RIVERSIDE      SUNNY     87  48  25 W8G18     29.82R
PALM SPRINGS   SUNNY    106  23   5 NW15G28   29.65S
EL CENTRO NAS  CLEAR    106   8   3 W25       29.65R
IMPERIAL       MOCLDY   103  34   9 W14       29.62S
BLYTHE         PTCLDY   110  20   4 SW20      29.61S HX 101
NEEDLES        PTCLDY   112 -10   1 SW16      29.61F HX 101
$$

NVZ020-UTZ003-280300-
SOUTHERN NEVADA-UTAH

CITY           SKY/WX    TMP DP  RH WIND       PRES   REMARKS
LAS VEGAS      SUNNY    104   4   2 W15G21    29.69S
SALT LAKE CITY PTCLDY    87  30  13 N9        29.85F
$$

NMZ009-TXZ055-280300-
NEW MEXICO-WEST TEXAS

CITY           SKY/WX    TMP DP  RH WIND       PRES   REMARKS
ALBUQUERQUE    PTCLDY    83  41  22 S25G33    29.96S
EL PASO        PTCLDY    92  51  24 S7        29.92S
$$


........................KEY........................
SKY/WX - SKY CONDITION/WEATHER
TMP    - TEMPERATURE IN FAHRENHEIT
DP     - DEWPOINT IN FAHRENHEIT
RH     - RELATIVE HUMIDITY IN PERCENT
WIND   - DIRECTION AND SPEED IN MILES PER HOUR (MPH)
VRB    - VARIABLE WIND DIRECTION
PRES   - MEAN SEA LEVEL PRESSURE IN INCHES OF MERCURY
         F - FALLING PRESSURE   R - RISING PRESSURE
         S - STEADY PRESSURE
VSB    - VISIBILITY IN MILES
HX     - HEAT INDEX IN FAHRENHEIT
WCI    - WIND CHILL INDEX IN FAHRENHEIT
TC     - TEMPERATURE IN CELSIUS WHICH IS ALSO KNOWN AS
         TEMPERATURE IN CENTIGRADE
AFB    - AIR FORCE BASE
         LUKE AFB IS LUKE AIR FORCE BASE
         DAVIS-MONTHAN IS DAVIS-MONTHAN AIR FORCE BASE
NAS    - NAVAL AIR STATION
         EL CENTRO NAS IS EL CENTRO NAVAL AIR STATION
N/A    - NOT AVAILABLE




USA.gov is the U.S. government's official web portal to all federal, state and local government web resources and services.